This is the latest recevied weather packets stored in our database for station/object NO3U. If no packets are shown the sender has not sent any weather packets the latest 10 day(s).
| Time | Temp. | Humidity | Pressure | Rain* | Wind** | Luminosity | Snow |
|---|---|---|---|---|---|---|---|
| 1777938643 | 20° C | 61% | 1006.6 hPa | 0 mm | - | 18 W/m² | - |
| 1777938340 | 20° C | 60% | 1006.6 hPa | 0 mm | - | 21 W/m² | - |
| 1777938037 | 20.56° C | 59% | 1006.5 hPa | 0 mm | - | 27 W/m² | - |
| 1777937733 | 20.56° C | 58% | 1006.8 hPa | 0 mm | - | 31 W/m² | - |
| 1777937430 | 20.56° C | 57% | 1006.8 hPa | 0 mm | - | 34 W/m² | - |
| 1777937127 | 21.11° C | 56% | 1006.9 hPa | 0 mm | - | 41 W/m² | - |
| 1777936824 | 21.11° C | 54% | 1006.8 hPa | 0 mm | - | 57 W/m² | - |
| 1777936521 | 21.11° C | 54% | 1006.8 hPa | 0 mm | - | 66 W/m² | - |
| 1777936216 | 21.11° C | 55% | 1006.6 hPa | 0 mm | - | 64 W/m² | - |
| 1777935913 | 21.11° C | 55% | 1007 hPa | 0 mm | - | 42 W/m² | - |
| 1777935612 | 21.11° C | 55% | 1006.9 hPa | 0 mm | - | 33 W/m² | - |
| 1777935309 | 21.11° C | 55% | 1007 hPa | 0 mm | - | 53 W/m² | - |
| 1777935006 | 21.67° C | 54% | 1007.1 hPa | 0 mm | - | 48 W/m² | - |
| 1777934703 | 21.67° C | 54% | 1007.1 hPa | 0 mm | - | 79 W/m² | - |
| 1777934400 | 21.67° C | 55% | 1007.1 hPa | 0 mm | - | 85 W/m² | - |
| 1777934096 | 21.67° C | 53% | 1007 hPa | 0 mm | - | 47 W/m² | - |
| 1777933791 | 21.67° C | 52% | 1006.9 hPa | 0 mm | - | 55 W/m² | - |
| 1777933489 | 21.67° C | 52% | 1007.2 hPa | 0 mm | - | 58 W/m² | - |
| 1777933187 | 21.67° C | 52% | 1007.3 hPa | 0 mm | - | 44 W/m² | - |
| 1777932884 | 21.67° C | 52% | 1007.2 hPa | 0 mm | - | 40 W/m² | - |
| 1777932581 | 21.67° C | 52% | 1007 hPa | 0 mm | - | 43 W/m² | - |
| 1777932277 | 21.67° C | 51% | 1007 hPa | 0 mm | - | 24 W/m² | - |
| 1777931974 | 21.67° C | 50% | 1007 hPa | 0 mm | - | 54 W/m² | - |
| 1777931671 | 22.22° C | 50% | 1007.1 hPa | 0 mm | - | 104 W/m² | - |
| 1777931367 | 22.78° C | 47% | 1007 hPa | 0 mm | - | 234 W/m² | - |
* Rain latest hour (hover to see other rain measurements)
** Current wind speed in m/s (hover to see current wind gust speed)